FW0896 Weather Reports


Display with metric or nautical units.
time (UTC)temp
F
wind
direction
speed
MPH
gust
MPH
rain 1hr
in
rain 24hr
in
rain mn
in
humidity
%
barometer
mb
20220520071537 54 343 13.0 19.0 0.05 0.48 0.12 88 993.8
20220520070034 54 327 13.0 24.0 0.12 0.48 0.12 88 993.8
20220520064532 55 326 13.0 22.0 0.11 0.47 0.11 87 994.5
20220520063029 55 343 24.0 35.0 0.11 0.47 0.11 88 990.5
20220520061525 58 328 16.0 22.0 0.07 0.43 0.07 86 993.1
20220520060021 61 321 12.0 23.0 0.00 0.36 0.00 88 991.5
20220520054516 62 339 13.0 17.0 0.00 0.36 0.00 88 989.8
20220520053012 64 340 12.0 16.0 0.00 0.36 0.00 82 990.0
20220520051507 67 313 4.0 7.0 0.00 0.36 0.00 77 988.8
20220520050010 71 274 4.0 12.0 0.00 0.36 0.00 74 988.6
20220520044502 72 233 14.0 21.0 0.00 0.36 0.36 72 987.5
20220520043002 72 194 10.0 16.0 0.00 0.36 0.36 72 987.6
20220520041501 73 241 15.0 20.0 0.00 0.36 0.36 70 987.7
20220520040000 73 230 13.0 20.0 0.00 0.36 0.36 71 987.4
20220520034604 73 200 10.0 16.0 0.00 0.36 0.36 70 987.5
20220520033100 74 256 10.0 13.0 0.00 0.36 0.36 69 987.3
20220520031558 75 237 8.0 14.0 0.00 0.36 0.36 67 987.4
20220520030057 76 209 7.0 16.0 0.00 0.36 0.36 67 987.2
20220520024604 73 226 5.0 9.0 0.00 0.36 0.36 66 987.2
20220520023055 70 164 2.0 4.0 0.00 0.36 0.36 75 987.5
20220520021555 70 60 2.0 4.0 0.00 0.36 0.36 74 987.1
20220520020051 73 342 2.0 4.0 0.00 0.36 0.36 68 987.6
20220520014547 76 342 3.0 5.0 0.00 0.36 0.36 64 987.9
20220520013104 77 321 2.0 3.0 0.00 0.36 0.36 62 987.9
20220520011542 78 321 2.0 4.0 0.00 0.36 0.36 59 987.7
20220520010102 79 321 3.0 6.0 0.00 0.36 0.36 58 987.6
20220520004545 79 297 3.0 8.0 0.00 0.36 0.36 60 987.5
20220520003045 78 271 5.0 8.0 0.00 0.36 0.36 60 987.5
20220520001539 78 276 5.0 10.0 0.03 0.36 0.36 61 987.5
20220520000036 80 251 5.0 10.0 0.03 0.36 0.36 58 987.3
20220519234548 80 255 6.0 14.0 0.07 0.36 0.36 61 987.2
20220519233034 74 264 6.0 18.0 0.21 0.36 0.36 69 987.1
20220519231535 71 276 4.0 6.0 0.18 0.33 0.33 74 987.1
20220519230049 69 225 5.0 33.0 0.18 0.33 0.33 75 987.4
20220519224529 70 258 1.0 19.0 0.14 0.28 0.28 73 987.2
20220519223028 81 232 13.0 23.0 0.00 0.15 0.15 54 987.0
20220519221532 83 229 12.0 21.0 0.00 0.15 0.15 53 987.1
20220519220041 83 238 11.0 24.0 0.00 0.15 0.15 53 987.4
20220519214523 83 255 16.0 28.0 0.00 0.15 0.15 53 987.7
20220519213017 81 223 15.0 30.0 0.00 0.15 0.15 60 988.0
20220519211516 85 202 24.0 33.0 0.00 0.15 0.15 48 988.2
20220519210012 85 205 20.0 29.0 0.00 0.15 0.15 52 988.6
20220519204508 84 258 16.0 30.0 0.00 0.15 0.15 52 989.1
20220519203005 84 245 15.0 27.0 0.00 0.15 0.15 52 989.3
20220519201503 79 181 6.0 23.0 0.00 0.15 0.15 63 990.0
20220519200057 77 127 9.0 21.0 0.00 0.15 0.15 67 990.3
20220519194554 77 105 13.0 22.0 0.00 0.15 0.15 68 991.1
20220519193051 75 108 14.0 23.0 0.00 0.15 0.15 70 991.4
20220519191544 74 125 12.0 19.0 0.00 0.15 0.15 73 992.0
20220519190111 72 124 14.0 20.0 0.00 0.15 0.15 73 992.6
20220519184535 70 129 14.0 21.0 0.01 0.15 0.15 75 993.5
20220519183030 68 117 10.0 15.0 0.01 0.15 0.15 79 994.3
20220519181526 68 122 6.0 15.0 0.01 0.15 0.15 77 995.1
20220519180031 67 120 9.0 15.0 0.01 0.15 0.15 79 995.5
20220519174521 65 122 10.0 16.0 0.00 0.14 0.14 82 995.8
20220519173017 63 121 6.0 13.0 0.13 0.14 0.14 88 996.3
20220519171513 61 124 7.0 12.0 0.14 0.14 0.14 87 996.7
20220519170037 61 146 5.0 11.0 0.14 0.14 0.14 88 997.0
20220519164508 61 125 5.0 10.0 0.14 0.14 0.14 85 997.6
20220519163006 61 110 6.0 9.0 0.01 0.01 0.01 80 997.9
20220519161506 63 122 7.0 12.0 0.00 0.00 0.00 75 998.0
20220519160004 63 97 9.0 14.0 0.00 0.00 0.00 73 998.2
20220519154502 64 122 6.0 11.0 0.00 0.00 0.00 72 998.8
20220519153059 64 146 6.0 12.0 0.00 0.00 0.00 69 999.5
20220519151602 64 128 7.0 12.0 0.00 0.00 0.00 68 999.9
20220519150104 62 105 7.0 11.0 0.00 0.00 0.00 74 999.8
20220519144554 61 143 3.0 5.0 0.00 0.00 0.00 76 1001.4
20220519143104 60 122 4.0 6.0 0.00 0.00 0.00 75 1000.9
20220519141603 61 120 4.0 7.0 0.00 0.00 0.00 75 1001.5
20220519140049 61 155 2.0 5.0 0.00 0.00 0.00 74 1001.9
20220519134559 62 178 2.0 4.0 0.00 0.00 0.00 76 1002.4
20220519133046 62 124 1.0 4.0 0.00 0.00 0.00 77 1002.2
20220519131545 60 103 0.0 2.0 0.00 0.00 0.00 81 1002.8
20220519130054 60 103 0.0 1.0 0.00 0.00 0.00 79 1002.8
20220519124544 60 103 0.0 5.0 0.00 0.00 0.00 79 1003.0
20220519123042 59 213 1.0 3.0 0.00 0.00 0.00 78 1002.7
20220519121551 59 213 0.0 3.0 0.00 0.00 0.00 80 1003.0
20220519120111 57 213 0.0 2.0 0.00 0.00 0.00 79 1002.9
20220519114544 57 222 0.0 0.0 0.00 0.00 0.00 81 1003.0
20220519113038 56 222 0.0 2.0 0.00 0.00 0.00 81 1003.3
20220519111542 56 222 0.0 2.0 0.00 0.00 0.00 81 1003.3
20220519110037 55 222 1.0 3.0 0.00 0.00 0.00 82 1003.5
20220519104545 56 223 0.0 3.0 0.00 0.00 0.00 80 1003.7
20220519103037 55 225 1.0 4.0 0.00 0.00 0.00 82 1004.2
20220519101536 55 203 0.0 4.0 0.00 0.00 0.00 81 1003.6
20220519100031 55 214 1.0 4.0 0.00 0.00 0.00 80 1004.1
20220519094536 55 214 0.0 4.0 0.00 0.00 0.00 80 1004.0
20220519093030 55 214 1.0 2.0 0.00 0.00 0.00 81 1004.3
20220519091527 56 214 1.0 4.0 0.00 0.00 0.00 78 1004.2
20220519090028 58 230 0.0 0.0 0.00 0.00 0.00 76 1004.2
20220519084526 58 230 0.0 0.0 0.00 0.00 0.00 76 1004.5
20220519083025 59 230 1.0 3.0 0.00 0.00 0.00 75 1004.7
20220519081535 56 230 2.0 5.0 0.00 0.00 0.00 79 1004.6
20220519080022 57 202 3.0 5.0 0.00 0.00 0.00 77 1004.6
20220519074527 57 207 1.0 4.0 0.00 0.00 0.00 78 1004.5
20220519073020 59 304 0.0 0.0 0.00 0.00 0.00 75 1004.4